period_start,C,m1,H,J0,J1,J2,J3,J4,J5,JA,JB,JC,JD,JJ,JK,JN,#
2014-10-17 00:04:34,0.06,0.67,0.00,23.26,27.47,30.26,4.80,26.48,1018.56,2034.88,3192.98,3128.38,3387.86,350.18,348.12,12.26,0000 0000 0000 0000 000000
2014-10-17 00:09:35,0.05,0.67,0.00,23.27,27.47,30.25,4.89,26.55,1018.57,2034.91,3192.15,3127.98,3387.07,350.16,348.24,12.29,0000 0000 0000 0000 000000
2014-10-17 00:14:36,0.04,0.67,0.00,23.24,27.47,30.26,4.75,26.40,1018.57,2034.73,3191.34,3127.29,3386.52,350.11,348.15,12.32,0000 0000 0000 0000 000000
2014-10-17 00:19:38,0.06,0.67,0.00,23.23,27.47,30.25,4.73,26.51,1018.57,2034.81,3190.87,3127.00,3386.02,350.19,348.14,12.35,0000 0000 0000 0000 000000
2014-10-17 00:24:39,0.05,0.67,0.00,23.27,27.47,30.23,4.82,26.49,1018.57,2034.85,3190.05,3126.68,3385.73,350.44,348.47,12.38,0000 0000 0000 0000 000000
2014-10-17 00:29:40,0.06,0.68,0.00,23.26,27.47,30.22,4.80,26.57,1018.57,2034.86,3189.28,3126.03,3385.03,350.15,348.20,12.41,0000 0000 0000 0000 000000
2014-10-17 00:34:42,0.03,0.68,0.00,23.26,27.47,30.25,4.78,26.53,1018.57,2034.56,3188.49,3125.50,3384.38,349.85,348.14,12.44,0000 0000 0000 0000 000000
2014-10-17 00:39:43,0.03,0.68,0.00,23.29,27.47,30.24,4.71,26.53,1018.57,2034.44,3187.52,3125.00,3383.91,349.93,347.95,12.47,0000 0000 0000 0000 000000
2014-10-17 00:44:44,0.06,0.68,0.00,23.27,27.47,30.24,4.80,26.49,1018.57,2034.46,3186.80,3124.41,3383.15,349.97,348.01,12.50,0000 0000 0000 0000 000000
2014-10-17 00:49:46,0.03,0.68,0.00,23.27,27.47,30.25,4.82,26.47,1018.57,2034.35,3186.02,3123.99,3382.77,350.30,348.42,12.53,0000 0000 0000 0000 000000
2014-10-17 00:54:47,0.11,0.68,0.00,23.28,27.47,30.25,4.85,26.53,1018.57,2034.44,3185.28,3123.49,3382.05,350.43,348.56,12.55,0000 0000 0000 0000 000000
2014-10-17 00:59:48,0.04,0.69,0.00,23.30,27.48,30.24,4.80,26.49,1018.57,2034.42,3184.57,3123.02,3381.75,349.75,347.92,12.58,0000 0000 0000 0000 000000
2014-10-17 01:04:49,0.06,0.69,0.00,23.31,27.49,30.25,4.69,26.48,1018.57,2034.56,3183.90,3122.61,3381.06,349.65,347.62,12.61,0000 0000 0000 0000 000000
2014-10-17 01:09:50,0.03,0.69,0.00,23.30,27.49,30.26,4.72,26.42,1018.57,2034.34,3183.06,3122.01,3380.57,349.81,347.77,12.64,0000 0000 0000 0000 000000
2014-10-17 01:14:52,0.07,0.69,0.00,23.30,27.50,30.26,4.75,26.43,1018.57,2034.44,3182.25,3121.54,3380.02,349.67,347.53,12.67,0000 0000 0000 0000 000000
2014-10-17 01:19:53,0.02,0.69,0.00,23.31,27.50,30.26,4.77,26.40,1018.57,2034.21,3181.56,3121.01,3379.35,349.90,348.05,12.70,0000 0000 0000 0000 000000
2014-10-17 01:24:54,0.04,0.69,0.00,23.28,27.50,30.26,4.76,26.46,1018.57,2034.15,3180.86,3120.58,3378.96,349.78,347.72,12.73,0000 0000 0000 0000 000000
2014-10-17 01:29:55,0.07,0.70,0.00,23.27,27.50,30.23,4.73,26.48,1018.57,2034.21,3180.05,3120.01,3378.27,349.34,347.38,12.76,0000 0000 0000 0000 000000
2014-10-17 01:34:56,0.06,0.70,0.00,23.32,27.50,30.22,4.71,26.51,1018.57,2034.25,3179.34,3119.71,3377.93,349.76,347.71,12.79,0000 0000 0000 0000 000000
2014-10-17 01:39:57,0.05,0.70,0.00,23.32,27.49,30.24,4.84,26.62,1018.57,2034.14,3178.48,3119.04,3377.16,350.43,348.23,12.82,0000 0000 0000 0000 000000
2014-10-17 01:44:59,0.03,0.70,0.00,23.29,27.49,30.26,4.78,26.43,1018.57,2034.23,3177.99,3118.90,3376.98,350.47,348.46,12.85,0000 0000 0000 0000 000000
2014-10-17 01:50:00,0.08,0.70,0.00,23.29,27.49,30.23,4.78,26.52,1018.57,2034.26,3177.18,3118.11,3376.23,349.96,347.80,12.88,0000 0000 0000 0000 000000
2014-10-17 01:55:01,0.09,0.70,0.00,23.32,27.49,30.21,4.64,26.45,1018.57,2034.25,3176.31,3117.70,3375.74,349.72,347.49,12.91,0000 0000 0000 0000 000000
2014-10-17 02:00:02,0.12,0.71,0.00,23.30,27.49,30.23,4.78,26.63,1018.57,2034.31,3174.77,3116.68,3374.66,349.80,347.82,12.94,0000 0000 0000 0000 000000
2014-10-17 02:05:04,0.05,0.71,0.00,23.30,27.48,30.20,4.73,26.57,1018.57,2034.17,3173.53,3115.98,3373.83,350.01,347.89,12.96,0000 0000 0000 0000 000000
2014-10-17 02:10:05,0.07,0.71,0.00,23.31,27.48,30.23,4.71,26.45,1018.57,2034.14,3172.59,3115.23,3373.06,349.66,347.58,12.99,0000 0000 0000 0000 000000
2014-10-17 02:15:06,0.04,0.71,0.00,23.28,27.47,30.22,4.80,26.63,1018.57,2034.09,3171.84,3114.93,3372.55,350.18,348.30,13.02,0000 0000 0000 0000 000000
2014-10-17 02:20:08,0.05,0.72,0.00,23.27,27.47,30.24,4.91,26.61,1018.57,2034.10,3171.03,3114.19,3372.00,350.51,348.51,13.05,0000 0000 0000 0000 000000
2014-10-17 02:25:09,0.06,0.72,0.00,23.30,27.47,30.22,4.87,26.57,1018.57,2034.09,3170.17,3113.93,3371.32,350.53,348.63,13.08,0000 0000 0000 0000 000000
2014-10-17 02:30:10,0.06,0.72,0.00,23.26,27.47,30.18,4.82,26.58,1018.57,2034.13,3169.31,3113.12,3370.93,350.45,348.47,13.11,0000 0000 0000 0000 000000
2014-10-17 02:35:12,0.06,0.72,0.00,23.21,27.47,30.14,4.79,26.57,1018.57,2034.11,3168.49,3112.87,3370.10,350.01,348.02,13.14,0000 0000 0000 0000 000000
2014-10-17 02:40:13,0.05,0.72,0.00,23.25,27.47,30.21,4.71,26.61,1018.57,2034.11,3167.85,3112.08,3369.79,350.16,348.17,13.17,0000 0000 0000 0000 000000
2014-10-17 02:45:14,0.06,0.72,0.00,23.28,27.47,30.19,4.68,26.51,1018.57,2034.25,3167.04,3111.95,3369.05,349.21,347.24,13.20,0000 0000 0000 0000 000000
2014-10-17 02:50:15,0.08,0.73,0.00,23.27,27.47,30.18,4.81,26.47,1018.57,2034.27,3166.16,3111.17,3368.68,350.15,348.33,13.23,0000 0000 0000 0000 000000
2014-10-17 02:55:17,0.04,0.73,0.00,23.27,27.47,30.19,4.75,26.55,1018.57,2034.25,3165.40,3110.75,3368.02,350.03,348.07,13.26,0000 0000 0000 0000 000000
2014-10-17 03:00:18,0.08,0.73,0.00,23.27,27.47,30.19,4.70,26.52,1018.57,2034.23,3164.63,3110.04,3367.42,349.66,347.70,13.29,0000 0000 0000 0000 000000
2014-10-17 03:05:19,0.05,0.73,0.00,23.20,27.47,30.07,4.87,26.61,1018.57,2034.27,3163.73,3109.75,3366.96,350.17,348.25,13.32,0000 0000 0000 0000 000000
2014-10-17 03:10:20,0.07,0.73,0.00,23.18,27.47,30.09,4.82,26.54,1018.54,2034.31,3162.98,3109.04,3366.16,350.13,348.08,13.35,0000 0000 0000 0000 000000
2014-10-17 03:15:21,0.04,0.74,0.00,23.25,27.47,30.15,4.72,26.52,1018.56,2034.23,3162.12,3108.60,3365.75,349.69,347.73,13.37,0000 0000 0000 0000 000000
2014-10-17 03:20:23,0.09,0.74,0.00,23.28,27.47,30.13,4.78,26.57,1018.57,2034.24,3161.22,3108.01,3365.03,349.79,347.59,13.40,0000 0000 0000 0000 000000
2014-10-17 03:25:24,0.07,0.74,0.00,23.25,27.46,30.12,4.86,26.62,1018.57,2034.41,3160.55,3107.66,3364.66,350.17,348.13,13.43,0000 0000 0000 0000 000000
2014-10-17 03:30:25,0.06,0.74,0.00,23.30,27.46,30.13,4.68,26.53,1018.57,2034.54,3159.85,3107.03,3364.03,349.50,347.46,13.46,0000 0000 0000 0000 000000
2014-10-17 03:35:26,0.06,0.74,0.00,23.30,27.45,30.13,4.83,26.52,1018.57,2034.56,3159.00,3106.70,3363.52,350.65,348.59,13.49,0000 0000 0000 0000 000000
2014-10-17 03:40:27,0.04,0.75,0.00,23.18,27.45,30.02,4.69,26.50,1018.57,2034.34,3158.09,3106.02,3362.99,349.44,347.50,13.52,0000 0000 0000 0000 000000
2014-10-17 03:45:28,0.07,0.75,0.00,23.01,27.45,30.10,4.67,26.43,1018.57,2034.49,3157.41,3105.73,3362.33,349.58,348.01,13.55,0000 0000 0000 0000 000000
2014-10-17 03:50:30,0.06,0.75,0.00,22.88,27.43,30.06,4.83,26.55,1018.57,2034.51,3156.85,3105.05,3362.00,350.37,349.04,13.58,0000 0000 0000 0000 000000
2014-10-17 03:55:31,0.07,0.75,0.00,22.97,27.41,29.94,4.78,26.59,1018.57,2034.86,3156.10,3105.00,3361.70,349.52,347.92,13.61,0000 0000 0000 0000 000000
2014-10-17 04:00:32,0.06,0.75,0.00,23.22,27.40,29.93,4.74,26.53,1018.57,2034.93,3155.78,3104.66,3361.04,349.73,347.99,13.64,0000 0000 0000 0000 000000
2014-10-17 04:05:34,0.05,0.76,0.00,23.22,27.39,29.99,4.72,26.49,1018.57,2034.96,3155.03,3104.03,3360.85,349.69,347.86,13.67,0000 0000 0000 0000 000000
2014-10-17 04:10:35,0.05,0.76,0.00,23.20,27.37,29.98,4.70,26.57,1018.57,2034.96,3154.34,3103.86,3360.10,349.47,347.59,13.70,0000 0000 0000 0000 000000
2014-10-17 04:15:36,0.05,0.76,0.00,23.21,27.37,30.00,4.84,26.64,1018.57,2034.96,3153.81,3103.14,3359.98,350.42,348.60,13.73,0000 0000 0000 0000 000000
2014-10-17 04:20:38,0.05,0.76,0.00,23.26,27.37,30.03,4.84,26.61,1018.57,2034.98,3153.05,3103.00,3359.25,350.26,348.40,13.75,0000 0000 0000 0000 000000
2014-10-17 04:25:39,0.06,0.76,0.00,23.23,27.37,30.04,4.78,26.67,1018.57,2034.98,3152.26,3102.43,3358.95,350.28,348.19,13.78,0000 0000 0000 0000 000000
2014-10-17 04:30:40,0.06,0.76,0.00,23.25,27.37,30.06,4.81,26.61,1018.57,2034.98,3151.63,3102.00,3358.20,350.34,348.39,13.81,0000 0000 0000 0000 000000
2014-10-17 04:35:41,0.06,0.76,0.00,23.28,27.37,30.07,4.75,26.63,1018.57,2034.99,3150.86,3101.40,3357.83,349.90,347.83,13.84,0000 0000 0000 0000 000000
2014-10-17 04:40:43,0.04,0.77,0.00,23.25,27.37,30.10,4.72,26.61,1018.57,2034.98,3150.04,3100.99,3357.06,349.71,347.57,13.87,0000 0000 0000 0000 000000
2014-10-17 04:45:44,0.07,0.77,0.00,23.26,27.38,30.10,4.77,26.52,1018.57,2034.99,3149.24,3100.42,3356.79,349.91,347.80,13.90,0000 0000 0000 0000 000000
2014-10-17 04:50:45,0.04,0.77,0.00,23.27,27.39,30.09,4.74,26.54,1018.57,2034.97,3148.58,3100.01,3356.07,350.16,348.18,13.93,0000 0000 0000 0000 000000
2014-10-17 04:55:46,0.09,0.77,0.00,23.23,27.40,30.09,4.78,26.64,1018.57,2034.97,3147.62,3099.40,3355.48,349.88,347.84,13.96,0000 0000 0000 0000 000000
2014-10-17 05:00:48,0.02,0.77,0.00,23.27,27.40,30.09,4.71,26.52,1018.57,2034.98,3146.94,3098.99,3355.00,349.90,348.07,13.99,0000 0000 0000 0000 000000
2014-10-17 05:05:49,0.09,0.78,0.00,23.26,27.40,30.06,4.79,26.59,1018.57,2034.97,3146.09,3098.31,3354.30,349.80,347.89,14.02,0000 0000 0000 0000 000000
2014-10-17 05:10:50,0.03,0.78,0.00,23.16,27.40,29.97,4.84,26.52,1018.57,2034.95,3145.17,3097.98,3353.96,350.17,348.21,14.05,0000 0000 0000 0000 000000
2014-10-17 05:15:51,0.06,0.78,0.00,23.08,27.39,30.02,4.84,26.53,1018.57,2034.98,3144.74,3097.62,3353.43,350.14,348.27,14.08,0000 0000 0000 0000 000000
2014-10-17 05:20:53,0.04,0.78,0.00,23.18,27.38,30.02,4.87,26.65,1018.56,2034.99,3144.02,3097.02,3353.01,350.46,348.40,14.11,0000 0000 0000 0000 000000
2014-10-17 05:25:54,0.06,0.78,0.00,23.26,27.37,30.07,4.82,26.55,1018.54,2034.98,3143.27,3096.74,3352.43,349.91,348.19,14.14,0000 0000 0000 0000 000000
2014-10-17 05:30:55,0.04,0.78,0.00,23.21,27.37,30.05,4.71,26.50,1018.50,2034.99,3142.85,3096.08,3352.00,349.77,347.85,14.16,0000 0000 0000 0000 000000
2014-10-17 05:35:56,0.03,0.78,0.00,23.20,27.37,30.03,4.79,26.61,1018.44,2034.99,3142.06,3095.99,3351.71,350.12,348.16,14.19,0000 0000 0000 0000 000000
2014-10-17 05:40:57,0.08,0.79,0.00,23.20,27.37,30.07,4.78,26.61,1018.53,2034.99,3141.26,3095.32,3351.04,349.80,348.03,14.22,0000 0000 0000 0000 000000
2014-10-17 05:45:59,0.03,0.79,0.00,23.22,27.37,30.07,4.79,26.51,1018.56,2034.99,3140.77,3095.00,3350.63,350.40,348.25,14.25,0000 0000 0000 0000 000000
2014-10-17 05:51:00,0.06,0.79,0.00,23.27,27.37,30.08,4.79,26.53,1018.57,2034.99,3140.02,3094.58,3350.04,349.81,347.98,14.28,0000 0000 0000 0000 000000
2014-10-17 05:56:01,0.05,0.79,0.00,23.27,27.37,30.10,4.79,26.54,1018.57,2034.99,3139.21,3094.02,3349.68,350.03,348.02,14.31,0000 0000 0000 0000 000000
2014-10-17 06:01:02,0.05,0.79,0.00,23.26,27.37,30.08,4.76,26.52,1018.57,2034.99,3138.49,3093.75,3349.02,349.97,348.03,14.34,0000 0000 0000 0000 000000
2014-10-17 06:06:03,0.06,0.80,0.00,23.27,27.37,30.10,4.82,26.52,1018.57,2034.99,3137.70,3093.04,3348.59,350.05,348.08,14.37,0000 0000 0000 0000 000000
2014-10-17 06:11:05,0.09,0.80,0.00,23.27,27.37,30.11,4.74,26.53,1018.57,2034.99,3136.67,3092.38,3347.79,350.00,348.12,14.40,0000 0000 0000 0000 000000
2014-10-17 06:16:06,0.07,0.80,0.00,23.26,27.37,30.12,4.70,26.46,1018.57,2034.99,3135.58,3091.71,3347.00,349.72,347.73,14.43,0000 0000 0000 0000 000000
2014-10-17 06:21:07,0.09,0.80,0.00,23.31,27.37,30.09,4.72,26.49,1018.57,2034.99,3134.65,3090.77,3346.04,349.55,347.58,14.46,0000 0000 0000 0000 000000
2014-10-17 06:26:09,0.11,0.81,0.00,23.33,27.37,30.11,4.84,26.62,1018.57,2034.99,3133.30,3089.77,3344.93,350.30,348.20,14.49,0000 0000 0000 0000 000000
2014-10-17 06:31:10,0.14,0.81,0.00,23.29,27.37,30.14,4.80,26.49,1018.57,2034.99,3131.78,3088.57,3343.72,350.02,348.03,14.52,0000 0000 0000 0000 000000
2014-10-17 06:36:11,0.09,0.81,0.00,23.30,27.37,30.12,4.85,26.55,1018.57,2034.99,3130.53,3087.75,3342.78,350.57,348.41,14.55,0000 0000 0000 0000 000000
2014-10-17 06:41:13,0.06,0.82,0.00,23.30,27.38,30.12,4.85,26.62,1018.57,2034.99,3129.52,3087.01,3341.95,349.98,347.88,14.57,0000 0000 0000 0000 000000
2014-10-17 06:46:14,0.08,0.82,0.00,23.26,27.38,30.13,4.76,26.52,1018.57,2034.99,3128.74,3086.21,3341.11,350.11,348.08,14.60,0000 0000 0000 0000 000000
2014-10-17 06:51:15,0.06,0.82,0.00,23.27,27.39,30.13,4.81,26.51,1018.57,2034.99,3127.86,3085.79,3340.58,350.12,348.17,14.63,0000 0000 0000 0000 000000
2014-10-17 06:56:17,0.06,0.82,0.00,23.29,27.40,30.11,4.77,26.59,1018.57,2034.99,3126.96,3085.05,3339.93,350.23,348.28,14.66,0000 0000 0000 0000 000000
2014-10-17 07:01:18,0.10,0.83,0.00,23.29,27.40,30.13,4.75,26.48,1018.57,2034.99,3125.97,3084.31,3339.08,350.10,348.02,14.69,0000 0000 0000 0000 000000
2014-10-17 07:06:20,0.09,0.83,0.00,23.28,27.40,30.13,4.81,26.55,1018.58,2034.99,3124.93,3083.69,3338.31,349.90,347.90,14.72,0000 0000 0000 0000 000000
2014-10-17 07:11:21,0.13,0.83,0.00,23.31,27.40,30.14,4.84,26.51,1018.59,2034.99,3123.57,3082.54,3337.20,350.09,348.01,14.75,0000 0000 0000 0000 000000
2014-10-17 07:16:21,0.10,0.83,0.00,23.28,27.40,30.14,4.75,26.55,1018.58,2034.99,3122.32,3081.58,3336.22,349.92,347.91,14.78,0000 0000 0000 0000 000000
2014-10-17 07:21:23,0.14,0.84,0.00,23.29,27.40,30.14,4.79,26.57,1018.58,2034.99,3120.77,3080.47,3334.91,350.00,347.80,14.81,0000 0000 0000 0000 000000
2014-10-17 07:26:24,0.17,0.84,0.00,23.30,27.40,30.15,4.80,26.53,1018.58,2034.99,3118.92,3078.92,3333.33,349.72,347.69,14.84,0000 0000 0000 0000 000000
2014-10-17 07:31:26,0.17,0.85,0.00,23.25,27.40,30.15,4.84,26.54,1018.58,2034.99,3117.00,3077.50,3331.70,350.32,348.38,14.87,0000 0000 0000 0000 000000
2014-10-17 07:36:27,0.19,0.85,0.00,23.26,27.40,30.15,4.78,26.60,1018.57,2034.99,3114.85,3075.79,3329.96,349.36,347.56,14.90,0000 0000 0000 0000 000000
2014-10-17 07:41:29,0.32,0.86,0.00,23.29,27.40,30.12,4.76,26.49,1018.57,2034.99,3111.57,3073.18,3327.26,350.24,348.32,14.93,0000 0000 0000 0000 000000
2014-10-17 07:46:30,0.44,0.87,0.00,23.26,27.40,30.15,4.79,26.58,1018.57,2034.99,3106.86,3069.59,3323.36,350.14,348.12,14.96,0000 0000 0000 0000 000000
2014-10-17 07:51:32,0.64,0.89,0.00,23.25,27.40,30.14,4.75,26.54,1018.57,2034.99,3100.32,3064.56,3317.99,349.83,347.80,14.98,0000 0000 0000 0000 000000
2014-10-17 07:56:33,0.99,0.91,0.00,23.30,27.40,30.14,4.79,26.58,1018.57,2034.99,3089.83,3056.59,3309.56,349.96,348.12,15.01,0000 0000 0000 0000 000000
2014-10-17 08:01:34,1.19,0.95,0.00,23.26,27.40,30.16,4.82,26.55,1018.57,2034.98,3077.04,3046.90,3299.12,350.23,348.07,15.04,0000 0000 0000 0000 000000
2014-10-17 08:06:35,1.44,0.99,0.00,23.26,27.40,30.17,4.83,26.57,1018.58,2034.95,3061.39,3034.92,3286.04,350.02,348.07,15.07,0000 0000 0000 0000 000000
2014-10-17 08:11:37,1.10,1.02,0.00,23.27,27.41,30.16,4.70,26.49,1018.57,2034.97,3048.39,3025.11,3275.31,349.89,347.99,15.10,0000 0000 0000 0000 000000
2014-10-17 08:16:38,1.07,1.05,0.00,23.27,27.41,30.16,4.71,26.53,1018.57,2034.98,3036.32,3016.14,3265.47,349.82,347.96,15.13,0000 0000 0000 0000 000000
2014-10-17 08:21:39,0.77,1.08,0.00,23.27,27.42,30.15,4.78,26.59,1018.57,2034.96,3026.82,3009.19,3257.86,349.95,347.83,15.16,0000 0000 0000 0000 000000
2014-10-17 08:26:41,0.56,1.10,0.10,23.29,27.42,30.13,4.76,26.63,1018.57,2034.98,3019.93,3004.38,3252.41,349.74,347.73,15.19,0000 0000 0000 0000 000000
2014-10-17 08:31:42,0.43,1.11,1.00,23.27,27.42,30.15,4.85,26.65,1018.57,2034.98,3014.85,3000.62,3248.35,350.47,348.63,15.22,0000 0000 0000 0000 000000
2014-10-17 08:36:43,0.38,1.13,1.00,23.26,27.42,30.15,4.84,26.56,1018.57,2034.98,3010.46,2997.34,3244.78,350.94,348.66,15.25,0000 0000 0000 0000 000000
2014-10-17 08:41:44,0.20,1.13,1.00,23.32,27.41,30.14,4.77,26.70,1018.57,2034.97,3007.72,2995.20,3242.51,349.72,347.84,15.28,0000 0000 0000 0000 000000
2014-10-17 08:46:45,0.10,1.14,1.00,23.31,27.42,30.14,4.79,26.58,1018.57,2034.97,3006.62,2994.16,3241.43,350.08,348.07,15.31,0000 0000 0000 0000 000000
2014-10-17 08:51:46,0.10,1.14,1.00,23.31,27.42,30.14,4.80,26.60,1018.57,2034.96,3005.64,2993.55,3240.68,350.08,348.08,15.34,0000 0000 0000 0000 000000
2014-10-17 08:56:48,0.10,1.14,0.87,23.32,27.42,30.14,4.75,26.49,1018.57,2034.97,3004.51,2992.65,3239.79,349.57,347.70,15.37,0000 0000 0000 0000 000000
2014-10-17 09:01:49,0.11,1.15,0.00,23.30,27.42,30.15,4.78,26.51,1018.57,2034.95,3003.14,2991.68,3238.71,349.54,347.79,15.39,0000 0000 0000 0000 000000
2014-10-17 09:06:50,0.07,1.15,0.00,23.29,27.42,30.16,4.88,26.63,1018.57,2034.96,3002.01,2990.91,3237.84,350.45,348.46,15.42,0000 0000 0000 0000 000000
2014-10-17 09:11:52,0.09,1.15,0.00,23.30,27.42,30.16,4.77,26.57,1018.57,2034.97,3001.01,2990.06,3237.02,350.01,347.94,15.45,0000 0000 0000 0000 000000
2014-10-17 09:16:53,0.13,1.16,0.00,23.29,27.42,30.13,4.79,26.57,1018.57,2034.96,2999.70,2989.14,3235.96,350.27,348.30,15.48,0000 0000 0000 0000 000000
2014-10-17 09:21:54,0.20,1.16,0.00,23.29,27.41,30.14,4.78,26.55,1018.57,2034.94,2997.59,2987.64,3234.31,349.78,347.84,15.51,0000 0000 0000 0000 000000
2014-10-17 09:26:55,0.18,1.17,0.00,23.32,27.41,30.14,4.75,26.57,1018.57,2034.96,2995.53,2986.10,3232.66,349.26,347.24,15.54,0000 0000 0000 0000 000000
2014-10-17 09:31:57,0.16,1.17,0.00,23.31,27.41,30.14,4.80,26.48,1018.57,2034.98,2993.69,2984.80,3231.30,350.13,348.12,15.57,0000 0000 0000 0000 000000
2014-10-17 09:36:58,0.15,1.18,0.00,23.27,27.40,30.15,4.81,26.61,1018.57,2034.98,2991.99,2983.65,3229.79,349.81,347.93,15.60,0000 0000 0000 0000 000000
2014-10-17 09:41:59,0.15,1.18,0.00,23.27,27.40,30.12,4.75,26.54,1018.57,2034.98,2990.14,2982.20,3228.34,349.77,347.72,15.63,0000 0000 0000 0000 000000
2014-10-17 09:47:00,0.13,1.19,0.00,23.28,27.40,30.11,4.71,26.45,1018.57,2034.97,2988.72,2981.02,3227.11,349.58,347.50,15.66,0000 0000 0000 0000 000000
2014-10-17 09:52:02,0.12,1.19,0.00,23.27,27.40,30.12,4.76,26.58,1018.57,2034.97,2987.21,2979.94,3225.95,349.78,347.85,15.69,0000 0000 0000 0000 000000
2014-10-17 09:57:03,0.14,1.19,0.00,23.29,27.40,30.16,4.78,26.44,1018.58,2034.96,2985.73,2978.90,3224.80,350.33,348.29,15.72,0000 0000 0000 0000 000000
2014-10-17 10:02:04,0.11,1.20,0.00,23.28,27.40,30.14,4.83,26.57,1018.58,2034.97,2984.49,2977.93,3223.82,349.82,347.82,15.75,0000 0000 0000 0000 000000
2014-10-17 10:07:06,0.12,1.20,0.00,23.27,27.40,30.14,4.72,26.52,1018.58,2034.97,2983.16,2976.94,3222.67,349.33,347.54,15.78,0000 0000 0000 0000 000000
2014-10-17 10:12:07,0.13,1.20,0.00,23.29,27.41,30.13,4.79,26.53,1018.59,2034.97,2981.73,2975.90,3221.61,349.80,347.88,15.80,0000 0000 0000 0000 000000
2014-10-17 10:17:08,0.12,1.21,0.00,23.30,27.41,30.14,4.77,26.61,1018.58,2034.98,2980.29,2974.87,3220.50,350.08,348.19,15.83,0000 0000 0000 0000 000000
2014-10-17 10:22:10,0.13,1.21,0.00,23.29,27.41,30.15,4.78,26.51,1018.60,2034.98,2978.84,2973.83,3219.43,349.94,347.96,15.86,0000 0000 0000 0000 000000
2014-10-17 10:27:11,0.12,1.21,0.00,23.30,27.42,30.14,4.78,26.64,1018.60,2034.98,2977.54,2972.78,3218.26,349.83,347.84,15.89,0000 0000 0000 0000 000000
2014-10-17 10:32:13,0.13,1.22,0.00,23.29,27.42,30.14,4.78,26.57,1018.59,2034.98,2976.03,2971.68,3217.11,350.29,348.45,15.92,0000 0000 0000 0000 000000
2014-10-17 10:37:14,0.14,1.22,0.00,23.29,27.42,30.12,4.79,26.73,1018.59,2034.98,2974.48,2970.62,3215.87,350.35,348.40,15.95,0000 0000 0000 0000 000000
2014-10-17 10:42:15,0.15,1.23,0.00,23.31,27.42,30.13,4.76,26.53,1018.59,2034.98,2972.75,2969.30,3214.52,349.79,347.79,15.98,0000 0000 0000 0000 000000
2014-10-17 10:47:17,0.12,1.23,0.00,23.32,27.42,30.13,4.80,26.50,1018.57,2034.98,2971.28,2968.26,3213.37,349.98,347.82,16.01,0000 0000 0000 0000 000000
2014-10-17 10:52:18,0.14,1.24,0.00,23.27,27.42,30.15,4.73,26.52,1018.57,2034.97,2969.65,2967.03,3212.05,349.66,347.86,16.04,0000 0000 0000 0000 000000
2014-10-17 10:57:19,0.13,1.24,0.00,23.28,27.42,30.15,4.75,26.51,1018.57,2034.96,2968.16,2965.92,3210.83,350.13,348.05,16.07,0000 0000 0000 0000 000000
2014-10-17 11:02:20,0.15,1.24,0.00,23.29,27.42,30.13,4.78,26.68,1018.57,2034.98,2966.61,2964.83,3209.66,349.52,347.53,16.10,0000 0000 0000 0000 000000
2014-10-17 11:07:22,0.08,1.25,0.00,23.30,27.42,30.13,4.84,26.59,1018.57,2034.96,2965.39,2963.94,3208.73,350.45,348.47,16.13,0000 0000 0000 0000 000000
2014-10-17 11:12:23,0.11,1.25,0.00,23.33,27.42,30.12,4.80,26.49,1018.57,2034.96,2964.10,2963.04,3207.75,350.07,347.94,16.16,0000 0000 0000 0000 000000
2014-10-17 11:17:24,0.09,1.25,0.00,23.32,27.42,30.14,4.79,26.60,1018.57,2034.97,2963.00,2962.17,3206.99,349.79,347.92,16.19,0000 0000 0000 0000 000000
2014-10-17 11:22:25,0.10,1.26,0.00,23.28,27.42,30.14,4.76,26.57,1018.57,2034.98,2961.92,2961.61,3206.15,350.06,348.18,16.21,0000 0000 0000 0000 000000
2014-10-17 11:27:26,0.08,1.26,0.00,23.29,27.42,30.13,4.78,26.58,1018.57,2034.98,2960.87,2960.94,3205.31,349.44,347.50,16.24,0000 0000 0000 0000 000000
2014-10-17 11:32:27,0.07,1.26,0.00,23.30,27.42,30.13,4.78,26.52,1018.56,2034.96,2959.97,2960.10,3204.78,349.77,347.75,16.27,0000 0000 0000 0000 000000
2014-10-17 11:37:29,0.09,1.26,0.00,23.26,27.42,30.12,4.78,26.69,1018.48,2034.98,2959.01,2959.62,3204.00,349.92,347.88,16.30,0000 0000 0000 0000 000000
2014-10-17 11:42:30,0.06,1.27,0.00,23.28,27.41,30.13,4.84,26.61,1018.49,2034.97,2958.08,2959.01,3203.21,349.66,347.66,16.33,0000 0000 0000 0000 000000
2014-10-17 11:47:31,0.10,1.27,0.00,23.31,27.41,30.13,4.78,26.60,1018.52,2034.98,2957.19,2958.29,3202.65,350.10,348.09,16.36,0000 0000 0000 0000 000000
2014-10-17 11:52:32,0.04,1.27,0.00,23.24,27.40,30.12,4.78,26.62,1018.46,2034.97,2956.22,2957.89,3202.01,349.75,347.87,16.39,0000 0000 0000 0000 000000
2014-10-17 11:57:34,0.10,1.27,0.00,23.24,27.40,30.12,4.72,26.58,1018.43,2034.97,2955.48,2957.09,3201.33,350.03,348.04,16.42,0000 0000 0000 0000 000000
2014-10-17 12:02:34,0.08,1.27,0.00,23.31,27.40,30.12,4.84,26.57,1018.49,2034.98,2954.53,2956.54,3200.73,350.06,348.14,16.45,0000 0000 0000 0000 000000
2014-10-17 12:07:36,0.05,1.28,0.00,23.27,27.40,30.15,4.74,26.58,1018.54,2034.97,2953.65,2955.99,3200.01,349.20,347.24,16.48,0000 0000 0000 0000 000000
2014-10-17 12:12:37,0.09,1.28,0.00,23.26,27.40,30.13,4.73,26.58,1018.49,2034.97,2952.82,2955.26,3199.28,349.54,347.69,16.51,0000 0000 0000 0000 000000
2014-10-17 12:17:39,0.03,1.28,0.00,23.29,27.40,30.13,4.80,26.57,1018.31,2034.99,2951.97,2954.87,3198.92,350.17,347.90,16.54,0000 0000 0000 0000 000000
2014-10-17 12:22:40,0.10,1.28,0.00,23.28,27.40,30.13,4.80,26.67,1018.16,2034.98,2950.95,2954.06,3198.09,350.65,348.52,16.57,0000 0000 0000 0000 000000
2014-10-17 12:27:41,0.09,1.29,0.00,23.28,27.40,30.16,4.71,26.49,1018.10,2034.99,2950.01,2953.57,3197.49,349.48,347.35,16.60,0000 0000 0000 0000 000000
2014-10-17 12:32:42,0.09,1.29,0.00,23.27,27.40,30.14,4.84,26.59,1018.10,2034.98,2949.01,2952.76,3196.61,350.10,347.97,16.62,0000 0000 0000 0000 000000
2014-10-17 12:37:43,0.09,1.29,0.00,23.27,27.40,30.13,4.71,26.68,1018.09,2034.96,2947.79,2951.95,3195.69,349.56,347.67,16.65,0000 0000 0000 0000 000000
2014-10-17 12:42:44,0.09,1.30,0.00,23.27,27.40,30.13,4.75,26.59,1018.08,2034.96,2946.76,2951.10,3194.95,349.57,347.71,16.68,0000 0000 0000 0000 000000
2014-10-17 12:47:45,0.10,1.30,0.00,23.30,27.40,30.14,4.75,26.66,1018.10,2034.97,2945.74,2950.46,3194.11,349.91,347.76,16.71,0000 0000 0000 0000 000000
2014-10-17 12:52:46,0.08,1.30,0.00,23.29,27.40,30.12,4.73,26.58,1018.11,2034.97,2944.63,2949.82,3193.30,349.88,347.74,16.74,0000 0000 0000 0000 000000
2014-10-17 12:57:47,0.09,1.30,0.00,23.27,27.40,30.13,4.73,26.66,1018.14,2034.95,2943.67,2949.04,3192.53,350.10,347.99,16.77,0000 0000 0000 0000 000000
2014-10-17 13:02:49,0.09,1.31,0.00,23.31,27.40,30.17,4.74,26.52,1018.28,2034.95,2942.70,2948.36,3191.91,349.89,347.60,16.80,0000 0000 0000 0000 000000